period_start,C,m1,H,J0,J1,J2,J3,J4,J5,JA,JB,JC,JD,JJ,JK,JN,#
2014-10-18 00:00:38,0.10,1.59,0.00,23.21,27.52,30.34,4.72,26.66,1017.16,2033.98,2831.32,2874.21,3110.10,349.36,347.07,20.64,0000 0000 0000 0000 000000
2014-10-18 00:05:39,0.07,1.59,0.00,23.23,27.52,30.36,4.69,26.55,1017.15,2033.98,2830.41,2873.85,3109.52,349.12,346.87,20.67,0000 0000 0000 0000 000000
2014-10-18 00:10:40,0.07,1.60,0.00,23.27,27.52,30.37,4.78,26.58,1017.17,2033.98,2829.48,2873.09,3108.99,349.83,347.40,20.70,0000 0000 0000 0000 000000
2014-10-18 00:15:41,0.10,1.60,0.00,23.24,27.52,30.35,4.77,26.60,1017.18,2033.98,2828.62,2872.53,3108.22,349.84,347.44,20.73,0000 0000 0000 0000 000000
2014-10-18 00:20:42,0.06,1.60,0.00,23.22,27.52,30.36,4.83,26.59,1017.25,2033.97,2827.68,2872.00,3107.54,350.18,347.52,20.76,0000 0000 0000 0000 000000
2014-10-18 00:25:44,0.08,1.60,0.00,23.27,27.53,30.38,4.81,26.65,1017.18,2033.98,2826.84,2871.24,3106.94,350.26,347.79,20.78,0000 0000 0000 0000 000000
2014-10-18 00:30:45,0.07,1.61,0.00,23.25,27.54,30.38,4.72,26.52,1017.19,2033.96,2825.96,2870.76,3106.10,349.61,347.26,20.81,0000 0000 0000 0000 000000
2014-10-18 00:35:46,0.08,1.61,0.00,23.21,27.55,30.37,4.79,26.78,1017.24,2033.95,2825.02,2870.03,3105.54,349.98,347.68,20.84,0000 0000 0000 0000 000000
2014-10-18 00:40:48,0.09,1.61,0.00,23.25,27.55,30.37,4.84,26.74,1017.24,2033.94,2824.08,2869.32,3104.89,350.55,348.06,20.87,0000 0000 0000 0000 000000
2014-10-18 00:45:49,0.06,1.61,0.00,23.21,27.55,30.36,4.79,26.65,1017.15,2033.93,2823.25,2868.92,3104.07,350.07,347.74,20.90,0000 0000 0000 0000 000000
2014-10-18 00:50:51,0.10,1.62,0.00,23.18,27.55,30.38,4.79,26.65,1017.14,2033.88,2822.46,2868.13,3103.48,349.57,347.29,20.93,0000 0000 0000 0000 000000
2014-10-18 00:55:52,0.04,1.62,0.00,23.26,27.56,30.37,4.76,26.68,1017.21,2033.80,2821.54,2867.71,3102.84,349.69,347.39,20.96,0000 0000 0000 0000 000000
2014-10-18 01:00:54,0.03,1.62,0.00,23.22,27.57,30.39,4.78,26.66,1017.16,2033.52,2820.56,2867.01,3102.03,350.10,347.66,20.99,0000 0000 0000 0000 000000
2014-10-18 01:05:55,0.10,1.62,0.00,23.22,27.57,30.40,4.74,26.56,1017.13,2033.45,2819.61,2866.33,3101.29,350.23,347.72,21.02,0000 0000 0000 0000 000000
2014-10-18 01:10:56,0.03,1.62,0.00,23.25,27.57,30.41,4.82,26.61,1017.12,2033.30,2818.74,2865.83,3100.63,350.19,347.78,21.05,0000 0000 0000 0000 000000
2014-10-18 01:15:57,0.07,1.63,0.00,23.27,27.59,30.40,4.85,26.57,1017.13,2033.20,2817.88,2865.05,3100.00,350.21,347.69,21.08,0000 0000 0000 0000 000000
2014-10-18 01:20:59,0.08,1.63,0.00,23.25,27.60,30.38,4.82,26.57,1017.11,2033.14,2817.01,2864.59,3099.24,350.39,347.94,21.11,0000 0000 0000 0000 000000
2014-10-18 01:26:00,0.08,1.63,0.00,23.23,27.60,30.38,4.74,26.63,1017.11,2033.17,2816.05,2864.00,3098.69,349.67,347.26,21.14,0000 0000 0000 0000 000000
2014-10-18 01:31:01,0.09,1.63,0.00,23.26,27.60,30.38,4.84,26.77,1017.11,2033.19,2815.09,2863.25,3097.94,350.22,347.76,21.17,0000 0000 0000 0000 000000
2014-10-18 01:36:02,0.07,1.63,0.00,23.29,27.60,30.43,4.76,26.63,1017.11,2033.06,2814.16,2862.67,3097.12,349.89,347.45,21.19,0000 0000 0000 0000 000000
2014-10-18 01:41:04,0.07,1.64,0.00,23.27,27.60,30.41,4.85,26.77,1017.11,2033.03,2813.17,2862.01,3096.48,349.89,347.38,21.22,0000 0000 0000 0000 000000
2014-10-18 01:46:05,0.09,1.64,0.00,23.26,27.60,30.42,4.75,26.68,1017.11,2033.02,2812.21,2861.31,3095.85,349.81,347.37,21.25,0000 0000 0000 0000 000000
2014-10-18 01:51:06,0.08,1.64,0.00,23.27,27.61,30.41,4.79,26.58,1017.11,2033.04,2811.34,2860.83,3095.08,350.02,347.55,21.28,0000 0000 0000 0000 000000
2014-10-18 01:56:08,0.09,1.64,0.00,23.27,27.61,30.43,4.77,26.67,1017.11,2033.04,2810.32,2860.04,3094.39,349.81,347.20,21.31,0000 0000 0000 0000 000000
2014-10-18 02:01:09,0.07,1.65,0.00,23.27,27.62,30.41,4.83,26.51,1017.11,2033.04,2809.45,2859.56,3093.87,349.88,347.49,21.34,0000 0000 0000 0000 000000
2014-10-18 02:06:10,0.08,1.65,0.00,23.27,27.61,30.39,4.76,26.59,1017.11,2033.10,2808.52,2859.00,3093.06,350.18,347.73,21.37,0000 0000 0000 0000 000000
2014-10-18 02:11:12,0.09,1.65,0.00,23.24,27.61,30.39,4.78,26.65,1017.11,2033.04,2807.62,2858.25,3092.30,349.63,347.07,21.40,0000 0000 0000 0000 000000
2014-10-18 02:16:13,0.08,1.65,0.00,23.28,27.61,30.39,4.83,26.65,1017.11,2033.01,2806.58,2857.65,3091.68,350.19,347.50,21.43,0000 0000 0000 0000 000000
2014-10-18 02:21:14,0.06,1.66,0.00,23.28,27.60,30.39,4.83,26.63,1017.11,2033.03,2805.74,2857.02,3091.02,350.01,347.59,21.46,0000 0000 0000 0000 000000
2014-10-18 02:26:15,0.09,1.66,0.00,23.26,27.60,30.38,4.76,26.67,1017.11,2033.04,2804.86,2856.54,3090.40,349.61,347.16,21.49,0000 0000 0000 0000 000000
2014-10-18 02:31:16,0.05,1.66,0.00,23.27,27.60,30.37,4.75,26.70,1017.11,2033.06,2803.94,2856.00,3089.83,349.70,347.03,21.52,0000 0000 0000 0000 000000
2014-10-18 02:36:18,0.09,1.66,0.00,23.28,27.60,30.36,4.83,26.72,1017.10,2033.02,2802.99,2855.27,3089.05,350.53,348.04,21.55,0000 0000 0000 0000 000000
2014-10-18 02:41:19,0.06,1.67,0.00,23.27,27.60,30.35,4.78,26.76,1017.10,2033.02,2802.09,2854.96,3088.47,349.78,347.38,21.58,0000 0000 0000 0000 000000
2014-10-18 02:46:21,0.09,1.67,0.00,23.30,27.60,30.34,4.83,26.68,1017.10,2033.05,2801.37,2854.19,3087.98,350.27,347.77,21.61,0000 0000 0000 0000 000000
2014-10-18 02:51:22,0.07,1.67,0.00,23.27,27.60,30.32,4.78,26.60,1017.07,2033.09,2800.47,2853.95,3087.27,350.01,347.69,21.63,0000 0000 0000 0000 000000
2014-10-18 02:56:23,0.11,1.67,0.00,23.25,27.58,30.31,4.78,26.68,1016.98,2033.26,2799.80,2853.21,3086.97,349.83,347.37,21.66,0000 0000 0000 0000 000000
2014-10-18 03:01:24,0.05,1.68,0.00,23.29,27.57,30.31,4.74,26.68,1016.87,2033.24,2798.90,2852.91,3086.21,350.24,347.76,21.69,0000 0000 0000 0000 000000
2014-10-18 03:06:26,0.15,1.68,0.00,23.29,27.57,30.30,4.79,26.66,1016.79,2033.63,2798.05,2852.14,3085.96,349.78,347.22,21.72,0000 0000 0000 0000 000000
2014-10-18 03:11:27,0.04,1.68,0.00,23.28,27.57,30.30,4.67,26.64,1016.72,2033.69,2797.36,2851.95,3085.16,349.53,347.06,21.75,0000 0000 0000 0000 000000
2014-10-18 03:16:29,0.09,1.68,0.00,23.31,27.56,30.29,4.87,26.78,1016.67,2033.61,2796.57,2851.15,3084.76,350.16,347.37,21.78,0000 0000 0000 0000 000000
2014-10-18 03:21:30,0.07,1.69,0.00,23.29,27.55,30.25,4.79,26.77,1016.63,2033.80,2795.86,2850.95,3084.06,349.74,347.09,21.81,0000 0000 0000 0000 000000
2014-10-18 03:26:31,0.09,1.69,0.00,23.27,27.55,30.25,4.78,26.67,1016.63,2033.88,2794.98,2850.20,3083.53,349.76,347.16,21.84,0000 0000 0000 0000 000000
2014-10-18 03:31:33,0.05,1.69,0.00,23.31,27.55,30.27,4.71,26.67,1016.62,2033.90,2794.10,2849.96,3083.01,349.24,346.62,21.87,0000 0000 0000 0000 000000
2014-10-18 03:36:34,0.10,1.69,0.00,23.32,27.54,30.25,4.75,26.67,1016.62,2033.93,2793.39,2849.24,3082.41,350.47,347.76,21.90,0000 0000 0000 0000 000000
2014-10-18 03:41:35,0.03,1.70,0.00,23.32,27.52,30.24,4.90,26.82,1016.62,2033.95,2792.79,2848.99,3082.00,350.61,347.67,21.93,0000 0000 0000 0000 000000
2014-10-18 03:46:36,0.09,1.70,0.00,23.32,27.52,30.23,4.81,26.61,1016.62,2033.96,2792.03,2848.41,3081.45,350.52,347.86,21.96,0000 0000 0000 0000 000000
2014-10-18 03:51:38,0.04,1.70,0.00,23.32,27.52,30.24,4.74,26.58,1016.62,2033.97,2791.25,2848.01,3081.00,349.85,347.16,21.99,0000 0000 0000 0000 000000
2014-10-18 03:56:39,0.09,1.70,0.00,23.28,27.51,30.24,4.71,26.66,1016.62,2033.99,2790.45,2847.58,3080.43,349.52,346.77,22.02,0000 0000 0000 0000 000000
2014-10-18 04:01:40,0.04,1.70,0.00,23.31,27.50,30.21,4.77,26.67,1016.62,2033.99,2789.68,2847.00,3079.96,349.87,347.11,22.04,0000 0000 0000 0000 000000
2014-10-18 04:06:42,0.08,1.71,0.00,23.30,27.50,30.21,4.76,26.61,1016.62,2033.98,2788.94,2846.39,3079.17,349.64,346.79,22.07,0000 0000 0000 0000 000000
2014-10-18 04:11:43,0.04,1.71,0.00,23.28,27.50,30.22,4.85,26.61,1016.62,2033.98,2788.11,2846.00,3078.95,350.41,347.85,22.10,0000 0000 0000 0000 000000
2014-10-18 04:16:44,0.10,1.71,0.00,23.31,27.50,30.22,4.78,26.67,1016.62,2033.99,2787.39,2845.59,3078.16,349.97,347.29,22.13,0000 0000 0000 0000 000000
2014-10-18 04:21:45,0.03,1.71,0.00,23.29,27.49,30.22,4.84,26.76,1016.61,2033.99,2786.70,2845.02,3077.94,350.54,347.88,22.16,0000 0000 0000 0000 000000
2014-10-18 04:26:46,0.08,1.71,0.00,23.29,27.47,30.21,4.78,26.65,1016.57,2033.99,2785.91,2844.64,3077.14,350.02,347.24,22.19,0000 0000 0000 0000 000000
2014-10-18 04:31:48,0.05,1.72,0.00,23.32,27.47,30.20,4.80,26.59,1016.36,2033.99,2785.07,2844.02,3076.89,349.57,346.80,22.22,0000 0000 0000 0000 000000
2014-10-18 04:36:49,0.06,1.72,0.00,23.31,27.47,30.22,4.74,26.73,1016.19,2033.99,2784.46,2843.87,3076.14,349.32,346.31,22.25,0000 0000 0000 0000 000000
2014-10-18 04:41:50,0.05,1.72,0.00,23.31,27.47,30.21,4.85,26.71,1016.14,2033.99,2783.89,2843.09,3075.90,350.69,347.82,22.28,0000 0000 0000 0000 000000
2014-10-18 04:46:52,0.07,1.72,0.00,23.30,27.47,30.20,4.75,26.63,1016.14,2034.00,2783.00,2842.91,3075.11,349.67,346.92,22.31,0000 0000 0000 0000 000000
2014-10-18 04:51:53,0.08,1.72,0.00,23.30,27.46,30.20,4.79,26.66,1016.15,2034.00,2782.14,2842.12,3074.77,350.20,347.50,22.34,0000 0000 0000 0000 000000
2014-10-18 04:56:54,0.04,1.73,0.00,23.31,27.45,30.19,4.87,26.72,1016.14,2034.01,2781.61,2841.98,3074.08,350.32,347.40,22.37,0000 0000 0000 0000 000000
2014-10-18 05:01:55,0.07,1.73,0.00,23.31,27.45,30.20,4.81,26.71,1016.14,2034.00,2780.90,2841.29,3073.86,350.31,347.46,22.40,0000 0000 0000 0000 000000
2014-10-18 05:06:57,0.05,1.73,0.00,23.28,27.45,30.18,4.68,26.59,1016.14,2034.00,2780.06,2840.98,3073.08,349.35,346.72,22.43,0000 0000 0000 0000 000000
2014-10-18 05:11:58,0.10,1.73,0.00,23.29,27.45,30.21,4.81,26.65,1016.14,2034.02,2779.23,2840.31,3072.68,350.01,347.19,22.45,0000 0000 0000 0000 000000
2014-10-18 05:16:59,0.05,1.73,0.00,23.32,27.45,30.19,4.79,26.63,1016.13,2034.00,2778.35,2839.96,3072.01,350.24,347.08,22.48,0000 0000 0000 0000 000000
2014-10-18 05:22:00,0.10,1.74,0.00,23.30,27.45,30.19,4.81,26.65,1016.13,2034.00,2777.56,2839.20,3071.42,350.13,347.04,22.51,0000 0000 0000 0000 000000
2014-10-18 05:27:01,0.04,1.74,0.00,23.29,27.45,30.18,4.74,26.62,1016.13,2034.01,2776.70,2838.92,3071.00,349.39,346.77,22.54,0000 0000 0000 0000 000000
2014-10-18 05:32:03,0.09,1.74,0.00,23.32,27.44,30.19,4.85,26.66,1016.13,2034.02,2775.86,2838.13,3070.30,350.49,347.57,22.57,0000 0000 0000 0000 000000
2014-10-18 05:37:04,0.08,1.74,0.00,23.30,27.44,30.17,4.76,26.79,1016.13,2034.01,2774.89,2837.71,3069.79,349.41,346.46,22.60,0000 0000 0000 0000 000000
2014-10-18 05:42:06,0.07,1.75,0.00,23.29,27.43,30.19,4.80,26.63,1016.13,2034.05,2774.04,2837.03,3069.06,350.14,347.25,22.63,0000 0000 0000 0000 000000
2014-10-18 05:47:07,0.06,1.75,0.00,23.30,27.42,30.18,4.77,26.54,1016.13,2034.07,2773.46,2836.81,3068.72,349.78,346.94,22.66,0000 0000 0000 0000 000000
2014-10-18 05:52:09,0.08,1.75,0.00,23.27,27.42,30.18,4.80,26.68,1016.12,2034.07,2772.58,2836.05,3068.02,349.54,346.74,22.69,0000 0000 0000 0000 000000
2014-10-18 05:57:10,0.08,1.75,0.00,23.29,27.42,30.15,4.75,26.69,1016.13,2034.10,2771.87,2835.72,3067.50,349.90,347.24,22.72,0000 0000 0000 0000 000000
2014-10-18 06:02:11,0.06,1.75,0.00,23.29,27.42,30.16,4.69,26.63,1016.12,2034.11,2771.03,2835.02,3066.88,349.40,346.65,22.75,0000 0000 0000 0000 000000
2014-10-18 06:07:12,0.13,1.76,0.00,23.28,27.42,30.15,4.80,26.63,1016.10,2034.24,2770.16,2834.57,3066.08,349.99,347.18,22.78,0000 0000 0000 0000 000000
2014-10-18 06:12:13,0.04,1.76,0.00,23.29,27.42,30.16,4.78,26.61,1016.01,2034.15,2769.37,2833.99,3065.67,350.51,347.37,22.81,0000 0000 0000 0000 000000
2014-10-18 06:17:14,0.06,1.76,0.00,23.29,27.42,30.14,4.80,26.62,1016.05,2034.10,2768.73,2833.34,3065.02,349.80,347.05,22.84,0000 0000 0000 0000 000000
2014-10-18 06:22:16,0.10,1.76,0.00,23.26,27.42,30.17,4.75,26.67,1016.07,2034.37,2768.03,2833.00,3064.87,349.68,347.01,22.86,0000 0000 0000 0000 000000
2014-10-18 06:27:17,-0.01,1.76,0.00,23.26,27.42,30.16,4.85,26.73,1016.05,2034.42,2767.98,2832.99,3064.28,349.93,346.96,22.89,0000 0000 0000 0000 000000
2014-10-18 06:32:18,-0.00,1.76,0.00,23.28,27.42,30.16,4.77,26.56,1016.06,2034.34,2767.94,2832.97,3064.05,350.33,347.53,22.92,0000 0000 0000 0000 000000
2014-10-18 06:37:19,0.00,1.76,0.00,23.26,27.42,30.17,4.77,26.76,1015.99,2034.26,2767.54,2832.89,3064.01,349.74,347.00,22.95,0000 0000 0000 0000 000000
2014-10-18 06:42:20,-0.02,1.76,0.00,23.27,27.40,30.16,4.80,26.73,1016.01,2034.16,2767.60,2832.81,3064.00,349.83,346.97,22.98,0000 0000 0000 0000 000000
2014-10-18 06:47:22,0.03,1.76,0.00,23.27,27.40,30.17,4.81,26.67,1015.93,2034.35,2767.88,2832.93,3064.01,349.92,347.01,23.01,0000 0000 0000 0000 000000
2014-10-18 06:52:23,0.03,1.77,0.00,23.25,27.40,30.17,4.80,26.67,1015.85,2034.46,2767.89,2832.94,3064.01,349.65,347.08,23.04,0000 0000 0000 0000 000000
2014-10-18 06:57:24,0.04,1.77,0.00,23.27,27.40,30.15,4.73,26.72,1015.94,2034.65,2767.75,2832.89,3064.01,349.61,346.75,23.07,0000 0000 0000 0000 000000
2014-10-18 07:02:25,0.02,1.77,0.00,23.27,27.40,30.14,4.79,26.64,1016.02,2034.64,2767.26,2832.68,3064.00,350.03,347.06,23.10,0000 0000 0000 0000 000000
2014-10-18 07:07:27,0.01,1.77,0.00,23.30,27.40,30.15,4.73,26.62,1015.94,2034.64,2767.05,2832.41,3064.00,349.93,347.04,23.13,0000 0000 0000 0000 000000
2014-10-18 07:12:28,0.00,1.77,0.00,23.31,27.40,30.15,4.77,26.70,1015.94,2034.53,2767.02,2832.14,3064.00,350.01,347.14,23.16,0000 0000 0000 0000 000000
2014-10-18 07:17:29,-0.01,1.77,0.00,23.29,27.40,30.16,4.69,26.65,1015.89,2034.38,2767.01,2832.04,3063.98,349.64,346.67,23.19,0000 0000 0000 0000 000000
2014-10-18 07:22:30,0.00,1.77,0.00,23.28,27.40,30.16,4.77,26.70,1015.99,2034.51,2767.00,2832.04,3063.99,350.13,347.28,23.22,0000 0000 0000 0000 000000
2014-10-18 07:27:32,0.01,1.77,0.00,23.31,27.40,30.16,4.78,26.71,1016.00,2034.37,2767.00,2832.02,3063.98,350.35,347.36,23.25,0000 0000 0000 0000 000000
2014-10-18 07:32:33,-0.03,1.77,0.00,23.27,27.40,30.17,4.73,26.68,1016.00,2034.34,2767.00,2832.02,3063.98,349.54,346.67,23.27,0000 0000 0000 0000 000000
2014-10-18 07:37:34,0.00,1.77,0.00,23.27,27.40,30.17,4.71,26.87,1015.97,2034.25,2767.00,2832.01,3063.92,349.11,346.24,23.30,0000 0000 0000 0000 000000
2014-10-18 07:42:35,0.01,1.77,0.00,23.29,27.40,30.17,4.78,26.65,1015.95,2034.25,2767.00,2832.00,3063.90,349.79,346.88,23.33,0000 0000 0000 0000 000000
2014-10-18 07:47:36,0.03,1.77,0.00,23.29,27.40,30.16,4.77,26.59,1015.93,2034.46,2767.00,2832.00,3063.93,350.58,347.75,23.36,0000 0000 0000 0000 000000
2014-10-18 07:52:38,-0.02,1.77,0.00,23.27,27.40,30.17,4.80,26.80,1015.91,2034.39,2767.00,2832.00,3063.93,349.67,346.95,23.39,0000 0000 0000 0000 000000
2014-10-18 07:57:39,0.07,1.77,0.00,23.30,27.41,30.15,4.74,26.54,1015.96,2034.59,2766.98,2832.00,3063.93,349.56,346.71,23.42,0000 0000 0000 0000 000000
2014-10-18 08:02:41,0.01,1.77,0.00,23.30,27.41,30.16,4.77,26.69,1015.99,2034.79,2766.98,2832.00,3063.93,350.23,347.24,23.45,0000 0000 0000 0000 000000
2014-10-18 08:07:42,0.01,1.77,0.00,23.28,27.41,30.15,4.83,26.61,1015.98,2034.85,2766.97,2832.00,3063.89,350.00,346.96,23.48,0000 0000 0000 0000 000000
2014-10-18 08:12:43,0.00,1.77,0.00,23.32,27.41,30.15,4.74,26.58,1016.05,2034.76,2766.98,2832.00,3063.76,350.13,347.51,23.51,0000 0000 0000 0000 000000
2014-10-18 08:17:45,0.01,1.77,0.00,23.31,27.41,30.14,4.75,26.60,1015.98,2034.84,2766.97,2832.00,3063.74,349.81,346.92,23.54,0000 0000 0000 0000 000000
2014-10-18 08:22:46,0.00,1.77,0.00,23.28,27.41,30.16,4.85,26.57,1016.00,2034.84,2766.96,2832.00,3063.60,350.59,347.61,23.57,0000 0000 0000 0000 000000
2014-10-18 08:27:47,-0.01,1.77,0.00,23.30,27.40,30.14,4.75,26.69,1016.01,2034.66,2766.70,2831.99,3063.17,349.39,346.53,23.60,0000 0000 0000 0000 000000
2014-10-18 08:32:48,0.04,1.77,0.00,23.28,27.40,30.16,4.79,26.66,1016.03,2034.76,2766.40,2831.98,3063.05,350.24,347.60,23.63,0000 0000 0000 0000 000000
2014-10-18 08:37:50,-0.04,1.77,0.00,23.27,27.40,30.14,4.85,26.88,1016.05,2034.67,2766.26,2831.89,3063.03,350.30,347.47,23.66,0000 0000 0000 0000 000000
2014-10-18 08:42:51,0.04,1.77,0.00,23.28,27.40,30.15,4.73,26.58,1016.06,2034.69,2766.06,2831.88,3063.02,349.68,346.66,23.68,0000 0000 0000 0000 000000
2014-10-18 08:47:52,0.01,1.77,0.00,23.23,27.40,30.13,4.81,26.63,1016.08,2034.78,2766.04,2831.88,3063.01,350.23,347.25,23.71,0000 0000 0000 0000 000000
2014-10-18 08:52:53,-0.01,1.77,0.00,23.22,27.40,30.14,4.70,26.67,1016.08,2034.79,2766.06,2831.91,3063.00,349.86,347.13,23.74,0000 0000 0000 0000 000000
2014-10-18 08:57:55,0.02,1.77,0.00,23.27,27.40,30.13,4.73,26.64,1016.04,2034.80,2766.01,2831.73,3063.01,349.99,347.17,23.77,0000 0000 0000 0000 000000
2014-10-18 09:02:56,0.00,1.77,0.00,23.28,27.40,30.14,4.72,26.62,1015.99,2034.77,2766.03,2831.67,3063.00,349.79,346.77,23.80,0000 0000 0000 0000 000000
2014-10-18 09:07:57,0.02,1.77,0.00,23.27,27.40,30.15,4.72,26.57,1015.93,2034.86,2766.00,2831.49,3063.00,349.81,347.07,23.83,0000 0000 0000 0000 000000
2014-10-18 09:12:59,0.01,1.77,0.00,23.29,27.41,30.15,4.82,26.69,1015.95,2034.93,2766.01,2831.43,3063.00,350.21,347.51,23.86,0000 0000 0000 0000 000000
2014-10-18 09:18:00,0.01,1.77,0.00,23.29,27.41,30.14,4.75,26.68,1015.99,2034.87,2766.00,2831.17,3063.00,349.58,346.76,23.89,0000 0000 0000 0000 000000
2014-10-18 09:23:02,-0.00,1.77,0.00,23.28,27.42,30.14,4.76,26.58,1015.87,2034.88,2766.00,2831.13,3063.00,350.15,347.34,23.92,0000 0000 0000 0000 000000
2014-10-18 09:28:03,0.01,1.77,0.00,23.29,27.42,30.14,4.77,26.67,1015.74,2034.93,2766.00,2831.11,3063.00,349.91,347.08,23.95,0000 0000 0000 0000 000000
2014-10-18 09:33:04,0.00,1.77,0.00,23.29,27.42,30.14,4.85,26.66,1015.66,2034.92,2766.00,2831.07,3062.99,349.76,346.89,23.98,0000 0000 0000 0000 000000
2014-10-18 09:38:05,0.00,1.77,0.00,23.27,27.42,30.14,4.75,26.84,1015.64,2034.87,2765.99,2831.02,3062.96,349.94,347.00,24.01,0000 0000 0000 0000 000000
2014-10-18 09:43:06,-0.01,1.77,0.00,23.30,27.42,30.17,4.76,26.66,1015.65,2034.88,2765.98,2831.00,3062.97,350.30,347.26,24.04,0000 0000 0000 0000 000000
2014-10-18 09:48:08,-0.01,1.77,0.00,23.30,27.42,30.17,4.76,26.65,1015.66,2034.78,2765.96,2831.00,3062.91,350.04,346.92,24.07,0000 0000 0000 0000 000000
2014-10-18 09:53:09,-0.03,1.77,0.00,23.28,27.42,30.15,4.76,26.71,1015.67,2034.57,2765.87,2831.00,3062.67,350.15,347.26,24.09,0000 0000 0000 0000 000000
2014-10-18 09:58:10,0.02,1.77,0.00,23.29,27.42,30.14,4.74,26.63,1015.66,2034.60,2765.64,2831.00,3062.36,349.58,346.59,24.12,0000 0000 0000 0000 000000
2014-10-18 10:03:11,0.02,1.77,0.00,23.30,27.42,30.16,4.81,26.68,1015.65,2034.69,2765.41,2830.99,3062.24,349.88,346.82,24.15,0000 0000 0000 0000 000000
2014-10-18 10:08:13,0.02,1.77,0.00,23.28,27.42,30.15,4.70,26.71,1015.65,2034.78,2765.29,2830.99,3062.15,349.81,346.76,24.18,0000 0000 0000 0000 000000
2014-10-18 10:13:14,-0.02,1.77,0.00,23.29,27.42,30.15,4.74,26.69,1015.65,2034.73,2765.17,2830.99,3062.11,349.79,346.85,24.21,0000 0000 0000 0000 000000
2014-10-18 10:18:15,0.03,1.77,0.00,23.31,27.42,30.15,4.75,26.63,1015.64,2034.78,2765.13,2830.99,3062.07,349.95,346.82,24.24,0000 0000 0000 0000 000000
2014-10-18 10:23:17,0.01,1.77,0.00,23.26,27.42,30.15,4.76,26.64,1015.64,2034.82,2765.02,2830.98,3062.06,350.16,346.90,24.27,0000 0000 0000 0000 000000
2014-10-18 10:28:18,0.00,1.77,0.00,23.25,27.42,30.13,4.74,26.66,1015.66,2034.85,2765.01,2830.99,3062.05,349.64,346.71,24.30,0000 0000 0000 0000 000000
2014-10-18 10:33:19,0.01,1.78,0.00,23.30,27.42,30.13,4.81,26.76,1015.64,2034.92,2765.03,2830.98,3062.02,349.61,346.40,24.33,0000 0000 0000 0000 000000
2014-10-18 10:38:20,-0.01,1.78,0.00,23.29,27.42,30.13,4.77,26.89,1015.64,2034.83,2765.00,2830.93,3062.01,349.59,346.55,24.36,0000 0000 0000 0000 000000
2014-10-18 10:43:21,0.01,1.78,0.00,23.23,27.41,30.14,4.77,26.79,1015.64,2034.95,2765.00,2830.96,3062.03,349.36,346.30,24.39,0000 0000 0000 0000 000000
2014-10-18 10:48:23,-0.00,1.78,0.00,23.26,27.41,30.13,4.81,26.84,1015.64,2034.96,2765.00,2830.95,3062.03,350.29,347.10,24.42,0000 0000 0000 0000 000000
2014-10-18 10:53:24,-0.00,1.78,0.00,23.26,27.40,30.10,4.74,26.89,1015.64,2034.96,2765.00,2830.91,3062.00,349.58,346.70,24.45,0000 0000 0000 0000 000000
2014-10-18 10:58:25,0.01,1.78,0.00,23.26,27.40,30.12,4.73,26.81,1015.64,2034.97,2765.00,2830.86,3062.00,350.16,347.26,24.48,0000 0000 0000 0000 000000
2014-10-18 11:03:27,0.01,1.78,0.00,23.29,27.40,30.12,4.76,26.81,1015.65,2034.94,2764.98,2830.44,3062.00,349.88,346.83,24.51,0000 0000 0000 0000 000000
2014-10-18 11:08:27,0.02,1.78,0.00,23.28,27.40,30.13,4.80,26.74,1015.64,2034.96,2764.95,2830.24,3062.00,350.73,347.75,24.53,0000 0000 0000 0000 000000
2014-10-18 11:13:29,-0.00,1.78,0.00,23.28,27.40,30.12,4.84,26.90,1015.65,2034.95,2764.94,2830.25,3062.00,350.53,347.68,24.56,0000 0000 0000 0000 000000
2014-10-18 11:18:30,0.01,1.78,0.00,23.30,27.40,30.12,4.76,26.74,1015.65,2034.96,2764.94,2830.17,3061.99,349.82,346.58,24.59,0000 0000 0000 0000 000000
2014-10-18 11:23:31,0.00,1.78,0.00,23.32,27.40,30.11,4.84,26.93,1015.67,2034.97,2764.90,2830.12,3061.99,350.01,346.97,24.62,0000 0000 0000 0000 000000
2014-10-18 11:28:32,0.00,1.78,0.00,23.29,27.40,30.11,4.74,26.82,1015.66,2034.96,2764.83,2830.06,3061.97,349.67,346.91,24.65,0000 0000 0000 0000 000000
2014-10-18 11:33:33,0.00,1.78,0.00,23.30,27.40,30.12,4.77,26.77,1015.65,2034.96,2764.69,2830.04,3061.97,350.27,347.15,24.68,0000 0000 0000 0000 000000
2014-10-18 11:38:34,0.02,1.78,0.00,23.28,27.40,30.11,4.72,26.82,1015.66,2034.93,2764.10,2830.01,3061.92,349.94,347.07,24.71,0000 0000 0000 0000 000000
2014-10-18 11:43:35,-0.01,1.78,0.00,23.29,27.40,30.13,4.75,26.70,1015.66,2034.96,2764.32,2830.02,3061.95,350.09,347.11,24.74,0000 0000 0000 0000 000000
2014-10-18 11:48:36,0.00,1.78,0.00,23.32,27.40,30.13,4.83,26.70,1015.66,2034.97,2764.52,2830.02,3061.97,350.25,347.24,24.77,0000 0000 0000 0000 000000
2014-10-18 11:53:38,0.00,1.78,0.00,23.30,27.40,30.12,4.75,26.72,1015.67,2034.98,2764.49,2830.02,3061.97,349.75,346.71,24.80,0000 0000 0000 0000 000000
2014-10-18 11:58:39,0.01,1.78,0.00,23.29,27.40,30.12,4.79,26.70,1015.71,2034.95,2764.18,2830.01,3061.88,350.18,347.25,24.83,0000 0000 0000 0000 000000
2014-10-18 12:03:40,0.02,1.78,0.00,23.26,27.40,30.09,4.74,26.76,1015.69,2034.97,2764.04,2830.00,3061.47,349.88,347.05,24.86,0000 0000 0000 0000 000000
2014-10-18 12:08:41,-0.00,1.78,0.00,23.20,27.40,30.05,4.72,26.81,1015.69,2034.97,2764.02,2830.00,3061.44,350.00,347.13,24.89,0000 0000 0000 0000 000000
2014-10-18 12:13:43,-0.00,1.78,0.00,23.22,27.40,30.08,4.69,26.77,1015.67,2034.95,2764.01,2830.00,3061.35,350.00,347.29,24.91,0000 0000 0000 0000 000000
2014-10-18 12:18:44,0.01,1.78,0.00,23.25,27.40,30.08,4.81,26.77,1015.66,2034.96,2764.01,2829.99,3061.14,350.43,347.50,24.94,0000 0000 0000 0000 000000
2014-10-18 12:23:45,-0.00,1.78,0.00,23.18,27.38,30.03,4.75,26.77,1015.66,2034.95,2764.02,2829.99,3061.17,349.56,346.74,24.97,0000 0000 0000 0000 000000
2014-10-18 12:28:47,0.01,1.78,0.00,23.20,27.37,30.03,4.76,26.66,1015.68,2034.99,2764.03,2829.99,3061.20,350.18,347.30,25.00,0000 0000 0000 0000 000000
2014-10-18 12:33:48,0.00,1.78,0.00,23.26,27.37,30.07,4.70,26.68,1015.69,2034.97,2764.00,2829.99,3061.08,349.68,346.80,25.03,0000 0000 0000 0000 000000
2014-10-18 12:38:49,-0.00,1.78,0.00,23.24,27.37,30.07,4.77,27.00,1015.68,2034.95,2763.99,2829.98,3061.03,349.99,347.17,25.06,0000 0000 0000 0000 000000
2014-10-18 12:43:51,0.00,1.78,0.00,23.24,27.37,30.08,4.76,26.72,1015.68,2034.98,2764.00,2829.99,3061.10,350.20,347.20,25.09,0000 0000 0000 0000 000000
2014-10-18 12:48:52,-0.00,1.78,0.00,23.26,27.37,30.08,4.83,26.86,1015.72,2034.98,2764.02,2829.99,3061.10,350.47,347.64,25.12,0000 0000 0000 0000 000000
2014-10-18 12:53:53,0.00,1.78,0.00,23.25,27.37,30.08,4.72,26.75,1015.84,2034.97,2764.00,2829.99,3061.04,349.77,347.00,25.15,0000 0000 0000 0000 000000
2014-10-18 12:58:54,0.00,1.78,0.00,23.27,27.37,30.09,4.74,26.71,1015.71,2034.97,2764.00,2829.98,3061.02,349.72,346.92,25.18,0000 0000 0000 0000 000000